Aérodrome :
LOGIN :

S'inscrire | Disclaimer

   EN    FR    IT 

 










Légende :    VFR   VFR Marginal   IFR   IFR Intensif   IFR Très Intensif
Visi : 
Plafond : 
>= 8 km
>= 3000ft
5 à 8 km
1000 à 3000 ft
1500m à 5 km
500 à 1000 ft
800 à 1500m
200 à 500 ft
< 800m
< 200 ft
Symboles :   Orages  Brouillard  Fortes neiges  Fortes précipitations  Vent > 20 kt
SIGMETs :   Divers  Orages  Givrage  Turbulence  Onde Orograph.  Cendres Volcan.






- Altitude de l'aérodrome : 138 ft
- Code IATA : RLG


ETNL - Rostock Laage

DERNIER METAR :
  • 051720Z 30012KT 9999 FEW030 21/14 Q1005 BLU+

METARs EXPIRÉS :
  • 051620Z 25011KT 9999 FEW028 SCT080 22/15 Q1005 BLU+
  • 051520Z 25016G28KT 9999 FEW025 SCT060 22/15 Q1005 BLU+

TAF TAF ETNL
Valide du 05 à 17h jusqu'au 06 à 05h UTC


051620Z 0517/0605 25012G22KT 9999 NSW SCT020 SCT050
TEMPO 0517/0520 26015G25KT 9999 NSW SCT020 BKN050
BECMG 0520/0522 24010KT 9999 NSW SCT020 BKN050
PROB30 0602/0604 23005KT 3000 BR BKN005 BY ETGL



MET'MAP, la Météo Aéronautique d'un coup d'oeil ! - Copyright ORBIFLY Décembre 2007 - Disclaimer

ORBIFLY MET'MAP TEAM :

Programmation & Développement : Alexandra Zaïnal
Sur une idée originale de : Baudouin d'Aumeries
Assistance à la programmation : Marc-Olivier Méhu
Soutien technique & logistique : Manuel Goepfert

Contact : metmap@orbifly.com




SOURCES & CREDITS :

   NOAA